This demonstration page uses our WeatherBlox Daily Observations layout. Learn more.

Left ArrowRight Arrow

44.8408, -93.29828

Hourly Observations for July 28, 2016

Temp ( °F °C ) Dew Point ( °F °C ) Humidity (%) Winds ( mph kmh ) Pressure ( in mb ) Visibility ( mi km ) Precip ( " mm )
12:20 am 00:20 Cloudy 68 20 64 18 88 88 N 9 15 29.94 1014 10 16 0.00 0.00
12:53 am 00:53 Cloudy 68 20 64 17.8 87 87 N 9 15 29.98 1015 10 16 0.00 0.00
1:53 am 01:53 Cloudy 67 19.4 63 17.2 87 87 N 10 17 29.98 1015 10 16 0.00 0.00
2:53 am 02:53 Cloudy 66 18.9 62 16.7 87 87 N 10 17 29.97 1015 10 16 0.00 0.00
3:53 am 03:53 Cloudy 66 18.9 62 16.7 87 87 NNE 10 17 29.98 1015 10 16 0.00 0.00
4:53 am 04:53 Cloudy 66 18.9 62 16.7 87 87 NNE 10 17 29.96 1015 10 16 0.00 0.00
5:53 am 05:53 Cloudy 66 18.9 61 16.1 84 84 N 9 15 29.98 1015 10 16 0.00 0.00
6:22 am 06:22 Cloudy 66 19 63 17 88 88 NNW 9 15 29.97 1015 10 16 0.00 0.00
6:42 am 06:42 Cloudy 66 18.9 62 16.7 87 87 N 7 11 29.97 1015 10 16 0.00 0.00
6:53 am 06:53 Cloudy 66 18.9 62 16.7 87 87 N 9 15 30.00 1016 10 16 0.00 0.00
7:53 am 07:53 Cloudy 65 18.3 61 16.1 87 87 N 9 15 30.01 1016 10 16 0.00 0.00
8:03 am 08:03 Cloudy 64 18 61 16 88 88 NNW 12 19 29.97 1015 10 16 0.00 0.00
8:24 am 08:24 Cloudy 65 18.3 61 16.1 87 87 N 10 17 30.00 1016 10 16 0.00 0.00
8:53 am 08:53 Cloudy 65 18.3 61 16.1 87 87 N 9 15 30.01 1016 10 16 0.00 0.00
9:53 am 09:53 Cloudy 66 18.9 61 16.1 84 84 N 7 11 30.02 1017 10 16 0.00 0.00
10:01 am 10:01 Cloudy 66 18.9 62 16.7 87 87 N 9 15 30.00 1016 10 16 0.00 0.00
10:53 am 10:53 Cloudy 66 18.9 61 16.1 84 84 N 10 17 30.04 1017 10 16 0.00 0.00
11:50 am 11:50 Cloudy 68 20 63 17 83 83 N 10 17 30.00 1016 10 16 0.00 0.00
11:53 am 11:53 Cloudy 68 20 62 16.7 81 81 N 9 15 30.03 1017 10 16 0.00 0.00
12:14 pm 12:14 Cloudy 70 21 63 17 78 78 N 10 17 30.00 1016 10 16 0.00 0.00
12:21 pm 12:21 Cloudy 70 21.1 62 16.7 76 76 N 13 20 30.00 1016 10 16 0.00 0.00
12:53 pm 12:53 Cloudy 72 22.2 62 16.7 71 71 N 9 15 30.02 1017 10 16 0.00 0.00
1:53 pm 13:53 Cloudy 73 22.8 61 16.1 66 66 NE 13 20 30.01 1016 10 16 0.00 0.00
2:01 pm 14:01 Cloudy 74 23.3 62 16.7 67 67 NNE 12 19 29.97 1015 10 16 0.00 0.00
2:53 pm 14:53 Cloudy 74 23.3 60 15.6 62 62 NNE 14 22 30.01 1016 10 16 0.00 0.00
3:53 pm 15:53 Cloudy 74 23.3 59 15 60 60 NNE 9 15 30.01 1016 10 16 0.00 0.00
4:53 pm 16:53 Mostly Cloudy 76 24.4 57 13.9 52 52 NNE 14 22 30.00 1016 10 16 0.00 0.00
5:53 pm 17:53 Mostly Cloudy 75 23.9 57 13.9 54 54 NE 10 17 30.01 1016 10 16 0.00 0.00
6:53 pm 18:53 Cloudy 74 23.3 58 14.4 57 57 NNE 12 19 30.02 1017 10 16 0.00 0.00
7:53 pm 19:53 Mostly Cloudy 74 23.3 58 14.4 57 57 VRB 7 11 30.02 1017 10 16 0.00 0.00
8:53 pm 20:53 Partly Cloudy 72 22.2 56 13.3 57 57 NE 6 9 30.02 1017 10 16 0.00 0.00
9:53 pm 21:53 Mostly Clear 70 21.1 57 13.9 64 64 NNE 6 9 30.03 1017 10 16 0.00 0.00
10:53 pm 22:53 Mostly Clear 69 20.6 57 13.9 66 66 NE 7 11 30.04 1017 10 16 0.00 0.00
11:53 pm 23:53 Mostly Clear 68 20 57 13.9 68 68 NE 8 13 30.04 1017 10 16 0.00 0.00

Powered by AerisWeather